Regional Weather Roundup
Issued by NWS

Home | Current Version | Previous Version | Graphics & Text | Print | Product List | Glossary On
Versions: 1 2 3 4 5 6 7 8 9 10 11 12 13 14 15 16 17 18 19 20 21 22 23 24 25 26 27 28 29 30 31 32
000
ASUS45 KGTF 061310
RWRMT
MONTANA HOURLY WEATHER ROUNDUP
NATIONAL WEATHER SERVICE GREAT FALLS MT
700 AM MDT WED MAY 06 2015

NOTE: "FAIR" INDICATES FEW OR NO CLOUDS BELOW 12000 FEET WITH NO
SIGNIFICANT WEATHER AND/OR OBSTRUCTIONS TO VISIBILITY.

MTZ001>007-043-061400-
WEST OF THE DIVIDE

CITY           SKY/WX    TMP DP  RH WIND       PRES   REMARKS
KALISPELL      MOSUNNY   26  23  88 CALM      29.95R
MISSOULA       CLEAR     31  24  75 CALM      29.97R
BUTTE          MOCLDY    37  24  59 NW5       29.92R
DEER LODGE       N/A     34  27  75 NW3       29.98R
EUREKA           N/A     28  23  80 CALM      29.97R
HAMILTON         N/A     32  25  74 CALM      29.95R
LIBBY            N/A     27  25  93 CALM      29.98R
$$

MTZ008-052>055-061400-
SOUTHWEST MONTANA

CITY           SKY/WX    TMP DP  RH WIND       PRES   REMARKS
BOZEMAN        CLOUDY    42  35  76 W14       29.89R
DILLON         CLOUDY    39  36  89 NE8       29.89R
$$

MTZ009-010-012-014-046-048-049-054-061400-
EAST SLOPES AND CENTRAL MONTANA

CITY           SKY/WX    TMP DP  RH WIND       PRES   REMARKS
CUT BANK       PTCLDY    33  31  92 NW14      29.92R WCI  23
GREAT FALLS    MOCLDY    40  31  70 N12       29.92R
MALMSTROM AFB  MOCLDY    42  32  66 N8        29.92R
HELENA         CLOUDY    48  25  40 SW6       29.90S
$$

MTZ011-013-016-021-045-047-050-051-061400-
NORTH CENTRAL MONTANA

CITY           SKY/WX    TMP DP  RH WIND       PRES   REMARKS
HAVRE          CLOUDY    43  37  79 W7        29.88R
LEWISTOWN      MOCLDY    44  31  60 W13       29.88R
CHINOOK          N/A     45  37  76 W15G23    29.85R
FORT BENTON      N/A     43  34  70 SW9       29.92R
$$

MTZ017>020-022>042-056>058-061-062-061400-
EASTERN PLAINS

CITY           SKY/WX    TMP DP  RH WIND       PRES   REMARKS
BAKER          CLOUDY    55  52  89 SE15      29.72S
BILLINGS       LGT RAIN  51  48  89 N9        29.79S
GLASGOW        CLOUDY    53  43  68 NW13      29.72R
JORDAN           N/A     54  46  74 NW16      29.74R
LIVINGSTON     CLOUDY    47  36  65 SW13      29.84R
MILES CITY     CLOUDY    57  44  62 N14       29.71R
SIDNEY         PTSUNNY   55  50  82 CALM      29.69S
WOLF POINT     MOSUNNY   51  48  89 W9        29.67R
BIG TIMBER       N/A     43  37  81 N3        29.86R
PLENTYWOOD       N/A     57  52  82 CALM      29.69R
POPLAR           N/A     50  48  93 SW5       29.68R
$$

REGIONAL REPORTS...DAKOTAS

CITY           SKY/WX    TMP DP  RH WIND       PRES   REMARKS
WILLISTON      PTSUNNY   59  53  80 S13       29.69S
MINOT          CLOUDY    59  55  87 SE7       29.76S
DICKINSON      CLOUDY    56  53  90 SE10      29.73S
BEACH          LGT RAIN  55  55 100 S15       29.72S
CROSBY         FAIR      55  55 100 S14       29.69S
WATFORD CITY   CLOUDY    57  54  88 SE15      29.70S
BISMARCK       LGT RAIN  59  27  29 SE13      29.79S
GRAND FORKS    CLOUDY    60  56  86 S13       29.91S
FARGO          CLOUDY    59  55  87 SE21G33   29.93S
BUFFALO SD       N/A     55  53  93 SE10      29.67S
RAPID CITY     LGT RAIN  53  53 100 SE9       29.72S FOG
$$

REGIONAL REPORTS...WYOMING/IDAHO/WASHINGTON

CITY           SKY/WX    TMP DP  RH WIND       PRES   REMARKS
GILLETTE       CLOUDY    53  48  83 SW8       29.70R
SHERIDAN       CLOUDY    52  46  80 NW21      29.76R
BUFFALO WY     CLOUDY    51  44  77 NW24G31   29.75R
CODY           CLOUDY    48  46  93 N7        29.80R
YELLOWSTONE LA   N/A     35  32  88 CALM      29.90R
IDAHO FALLS    MOCLDY    45  31  58 S13       29.83R
SALMON         CLEAR     34  28  80 SE3       29.88S
BOISE          MOCLDY    43  27  53 NW12      29.87F
SPOKANE        PTCLDY    38  25  59 SW5       29.96R
$$

REGIONAL REPORTS...ALBERTA

CITY           SKY/WX    TMP DP  RH WIND       PRES   REMARKS
EDMONTON       SNOW      30  28  93 NW15G21   29.94R VSB 1/4 WCI  19
CALGARY        MOCLDY    34  28  80 N16       29.93R WCI  23
LETHBRIDGE     MOCLDY    39  34  81 NW13      29.94R WCI  32
MEDICINE HAT   CLOUDY    39  36  87 W13       29.89R WCI  32
$$

REGIONAL REPORTS...SASKATCHEWAN

CITY           SKY/WX    TMP DP  RH WIND       PRES   REMARKS
SWIFT CURRENT  CLOUDY    43  41  93 W25       29.74R
REGINA         PTSUNNY   54  48  82 S10       29.67S
SASKATOON      CLOUDY    46  43  87 NE7       29.71R
$$



USA.gov is the U.S. government's official web portal to all federal, state and local government web resources and services.